www.pogodaiklimat.ru

ПОГОДА в Ilam

  • Прогноз погоды в Ilam
  • Монитор погоды в Ilam
  • Климат города

АРХИВ ПОГОДЫ в Ilam

Время (UTC), дата Ветер
(напр.,м/с)
 
Видим.   Явления Облачность Т
(С)
Тd
(С)
f
(%)
Тe
(С)
Тes
(С)
Комфортность P
(гПа)
Po
(гПа)
Тmin
(С)
Tmax
(С)
R
(мм)
S
(см)
15 9.01 ЮВ 4 9000 м мгла 9/5 900 м
[Cb calv Ac As]
+12.4 -2.2 36 +11 +11 1016.7 866.8
18 9.01 ЮВ 2 10 км 3/0
[Ac trans]
+5.9 -2.0 57 +4 +4 1020.4 869.3
21 9.01 ЮВ 2 10 км ясно +4.5 -5.0 50 +2 +2 1020.6 869.5
00 10.01 В 2 10 км ясно +2.7 -5.0 57 0 0 1020.2 869.6
03 10.01 В 2 10 км ясно +1.2 -4.4 66 -2 -2 1021.9 869.8 +0.5
06 10.01 ЮВ 2 10 км 6/0
[Ci sp]
+5.5 -3.1 54 +4 +6 1023.0 870.9
09 10.01 ЮВ 3 10 км ясно +12.8 -4.3 30 +12 +18 1021.6 871.1
12 10.01 ЮВ 3 10 км ясно +12.9 -5.6 27 +12 +14 1021.0 870.5
15 10.01 В 2 10 км ясно +5.6 -5.1 46 +4 +4 1025.6 871.9 +13.4
18 10.01 В 2 10 км 6/0
[Cs]
+4.0 -5.7 49 +2 +2 1025.6 872.8
21 10.01 В 2 10 км 6/0
[Cs]
+2.7 -7.2 48 0 0 1024.2 873.1
00 11.01 В 2 10 км 8/0
[Cs]
+2.8 -7.7 46 +1 +1 1024.3 873.1
03 11.01 ЮВ 3 10 км 1/0
[Ci fib]
+2.0 -9.6 42 -1 -1 1026.6 873.1 +1.3
06 11.01 ЮВ 2 10 км 3/0
[Ci sp]
+5.8 -10.0 31 +4 +7 1027.3 874.2
09 11.01 С 1 10 км ясно +15.2 -13.7 12 +16 +25 1024.4 873.8
12 11.01 З 3 10 км ясно +14.0 -13.1 14 +13 +15 1023.5 872.7
15 11.01 СЗ 1 10 км ясно +6.8 -7.2 36 +7 +7 1025.4 872.5 +15.5
18 11.01 ЮВ 1 10 км ясно +2.9 -8.1 44 +2 +2 1026.8 873.6
21 11.01 В 2 10 км ясно +1.7 -8.7 46 -1 -1 1025.2 872.6
00 12.01 В 2 10 км ясно -0.5 -9.6 50 -4 -4 1023.6 872.0
03 12.01 В 3 10 км ясно -1.0 -10.4 49 -5 -5 1024.8 870.9 -1.5
06 12.01 ЮВ 3 13 км 6/0
[Ci fib]
+4.7 -9.5 35 +2 +4 1024.6 871.1
09 12.01 ЮВ 1 13 км 8/0
[Ci sp]
+13.4 -18.9 9 +14 +21 1020.9 869.9
12 12.01 З 3 13 км 5/0
[Ci sp]
+13.2 -13.7 14 +13 +14 1019.7 868.4
15 12.01 СЗ 3 12 км 3/0
[Ci sp]
+6.0 -9.4 32 +4 +4 1021.6 868.1 +15.1
18 12.01 В 1 10 км 4/0
[Ac trans Ci sp]
+1.1 -9.8 44 0 0 1021.2 868.0
21 12.01 В 2 10 км 4/0
[Ci sp]
-1.0 -11.2 46 -4 -4 1017.7 866.7
00 13.01 В 2 10 км 3/0
[Ci sp]
-1.0 -11.2 46 -4 -4 1016.5 865.6
03 13.01 ЮВ 2 10 км ясно -1.7 -12.1 45 -5 -5 1017.6 864.5 -3.8
06 13.01 В 1 10 км ясно +4.5 -11.2 31 +4 +8 1018.3 865.5
09 13.01 З 5 12 км 1/1 1200 м
[Cu hum]
+8.3 -8.7 29 +6 +9 1016.7 864.6
12 13.01 З 6 15 км 3/3 1200 м
[Cu hum]
+7.6 -7.6 33 +4 +5 1016.3 864.1
15 13.01 СЗ 3 10 км 1/1 1350 м
[Cu hum]
+3.6 -6.4 48 +1 +1 1018.4 864.8 +8.7
18 13.01 В 2 10 км 6/1 1350 м
[Sc Ac trans Ci sp]
-0.4 -6.2 65 -4 -4 1018.3 865.2
21 13.01 СВ 1 10 км 9/3 1350 м
[Sc Ac As]
+1.5 -4.8 63 0 0 1016.5 865.1
00 14.01 СЗ 2 10 км ясно 0.0 -8.2 54 -3 -3 1016.3 864.3
03 14.01 В 1 10 км 1/1 1350 м
[Cu hum]
-2.2 -5.2 80 -4 -4 1019.3 865.4 -3.8
06 14.01 штиль 0 10 км ясно +3.8 -2.8 62 +3 +7 1020.5 866.8
09 14.01 ЮЗ 1 10 км ясно +8.8 -8.3 29 +9 +18 1018.6 866.9
12 14.01 З 4 10 км 6/0
[Cs]
+9.2 -2.7 43 +7 +8 1018.5 866.4
15 14.01 СЗ 1 10 км 4/0
[Ac trans Ci]
+3.4 -1.5 70 +2 +2 1021.6 867.4 +11.0
18 14.01 ЮВ 1 10 км 5/0
[Ac und Cc]
+1.6 -2.9 72 0 0 1020.9 867.7
21 14.01 В 3 10 км 5/0
[Ac trans Cc]
+1.3 -3.0 73 -3 -3 1020.1 868.2
03 15.01 В 2 8000 м слабый дождь 10/8 900 м
[Cb calv As op]
+2.1 0.0 86 -1 -1 1021.3 868.2 0.0
06 15.01 Ю 2 10 км 9/6 1050 м
[Cb calv Ac As]
+4.9 +2.9 87 +2 +3 1020.4 867.8 0.9
09 15.01 Ю 3 10 км 9/4 1050 м
[Sc Ac As]
+8.4 +2.8 68 +6 +8 1019.2 867.6
12 15.01 ЮЗ 3 10 км 10/6 1050 м
[Cb calv As op]
+7.7 +2.2 68 +5 +5 1018.0 866.7
15 15.01 ЮВ 4 7000 м слабый дождь 10/9 900 м
[Cb calv As op]
+3.5 +2.5 93 -1 -1 1021.2 868.2 +8.7
18 15.01 СВ 1 8000 м слабая морось {дождь} 10/6 900 м
[Cb calv As op]
+1.8 +1.8 100 -0 -0 1022.0 869.0 7
21 15.01 В 1 8000 м дымка {дождь} 10/6 900 м
[Cb calv As op]
+3.4 +3.4 100 +2 +2 1022.4 869.3
00 16.01 ЮВ 1 10 км 6/1 1050 м
[Sc Ac As]
+3.2 +3.1 99 +1 +1 1021.3 869.6 0.1
03 16.01 ЮВ 1 10 км ясно +1.3 +1.3 100 -1 -1 1024.1 870.3 +1.3
06 16.01 ЮВ 2 10 км ясно +4.3 +2.2 86 +2 +5 1024.7 871.3
09 16.01 Ю 2 10 км 4/4 1350 м
[Cu hum]
+9.1 +1.2 58 +8 +12 1022.6 871.1
12 16.01 З 3 10 км 8/4 1350 м
[Sc diur, vesp Ci sp]
+9.8 +2.4 60 +8 +9 1021.8 870.6
15 16.01 СЗ 2 10 км 4/3 1200 м
[Sc Ci fib]
+5.8 +3.1 83 +3 +3 1024.6 871.6 +11.1

 

Местоположение метеостанции Ilam (Иран): широта 33.63 долгота 46.43 высота над уровнем моря 1337 м.

В архиве по умолчанию представлена погода в Ilam за последнюю неделю. Архивные данные за месяц целиком и за предыдущие месяцы, начиная с января 2011 года, Вы можете получить, выбрав интересующий диапазон дат из раскрывающегося списка и нажав кнопку "Ввод!".

Внимание! Время в таблицах - всемирное. Для получения местного времени необходимо прибавить поправку, которая в Ilam равна 3.5 ч.

Ветер - указаны скорость ветра в м/с - средняя за 10 мин, порывы в срок и между сроками (в фигурных скобках) и направление, откуда дует ветер: С - северный, СВ - северо-восточный, В - восточный, ЮВ - юго-восточный, Ю - южный, ЮЗ - юго-западный, З - западный, СЗ - северо-западный.
Видимость - горизонтальная дальность видимости в метрах или километрах. При видимости от 1 до 10 км при отсутствии осадков обычно наблюдается дымка, при ухудшении видимости до 1 км и менее - туман. В сухую погоду видимость может ухудшаться дымом, пылью или мглою.
Явления - указаны атмосферные явления, наблюдавшиеся в срок или в последний час перед сроком; фигурными скобками обозначены явления, наблюдавшиеся между сроками (за 1-3 часа до срока); квадратными скобками обозначены град или гололедные отложения с указанием их диаметра в мм.
Облачность - указаны через наклонную черту общая и нижняя облачность в баллах и высота нижней границы облаков в метрах; квадратными скобками обозначены формы облаков: Ci - перистые, Cs - перисто-слоистые, Cc - перисто-кучевые, Ac - высококучевые, As - высокослоистые, Sc - слоисто-кучевые, Ns - слоисто-дождевые, Cu - кучевые, Cb - кучево-дождевые. Подробнее классификацию облаков см. в Атласе облаков (PDF).
T - Температура воздуха - температура, измеренная на высоте 2 м над землей.
Td - Температура точки росы - температура, при понижении до которой содержащийся в воздухе водяной пар достигнет насыщения.
f - Относительная влажность воздуха - влажноcть воздуха, измеренная на высоте 2 м над землей.
Te - Эффективная температура - температура, которую ощущает одетый по сезону человек в тени. Характеристика душности погоды. При расчете учитывается влияние влажности воздуха и скорости ветра на теплоощущения человека.
Tes - Эффективная температура на солнце - температура, которую ощущает человек, с поправкой на солнечный нагрев. Характеристика знойности погоды. Зависит от высоты солнца над горизонтом, облачности и скорости ветра. Ночью, в пасмурную погоду, а также при ветре 12 м/с и более поправка равна нулю.
P - Атмосферное давление - приведенное к уровню моря атмосферное давление.
Po - Атмосферное давление - измеренное на уровне метеостанции атмосферное давление.
Tmin - Минимальная температура - минимум температуры воздуха на высоте 2 м над землей.
Tmax - Максимальная температура - максимум температуры воздуха на высоте 2 м над землей.
R - Количество осадков - Количество выпавших осадков, мм. При наведении курсора мыши на число - период времени, за который выпало указанное количество осадков.
S - Снежный покров - Высота снежного покрова, см. При наведении курсора мыши на число - состояние снежного покрова и степень покрытия местности в баллах.